Washington, DC (20027)

9:32 PM EDT on July 24, 2016 (GMT -0400)
Palisades / Foxhall Crescent | | Change Station
Active Advisory: Heat Advisory

Elev 144 ft 38.92 °N, 77.10 °W | Updated 8 minutes ago

Mostly Cloudy
Mostly Cloudy
81.8 °F
Feels Like 85 °F
N
0.0
Wind Variable Wind from SE

Today
High -- | Low -- °F
--% Chance of Precip.
Yesterday
High -- | Low -- °F
Precip. -- in
Pressure 29.96 in
Visibility 10.0 miles
Clouds Few 6500 ft
Few 11000 ft
Mostly Cloudy 25000 ft
Heat Index 85 °F
Dew Point 69 °F
Humidity 65%
Rainfall 0.00 in
Snow Depth Not available.
6:02 AM 8:26 PM
Waning Gibbous, 71% visible
METAR KDCA 250052Z 17007KT 10SM FEW065 FEW110 BKN250 32/22 A2996 RMK AO2 SLP144 CB DSNT W-NW MOV E T03170222
Pressure 29.96 in
Visibility 10.0 miles
Clouds Few 6500 ft
Few 11000 ft
Mostly Cloudy 25000 ft
Heat Index 85 °F
Dew Point 69 °F
Humidity 65%
Rainfall 0.00 in
Snow Depth Not available.
6:02 AM 8:26 PM
Waning Gibbous, 71% visible
METAR KDCA 250052Z 17007KT 10SM FEW065 FEW110 BKN250 32/22 A2996 RMK AO2 SLP144 CB DSNT W-NW MOV E T03170222

10-Day Weather Forecast

Almanac

Astronomy

Jul. 24, 2016 Rise Set
Actual Time
Civil Twilight
Nautical Twilight
Astronomical Twilight
Moon
Length of Visible Light
Length of Day
Tomorrow will be .
, % of the Moon is Illuminated

Today's Extremes

State Highs State Lows

Community

WunderPhotos

Upload Photos

1,927,226 photos uploaded!

WunderBlog® & News

Nearby

Air Quality

  Air Quality AQ Index Pollutant
Not available.

Snow Depth

Station Depth Elevation

Earthquake Activity

City Distance Mag. Time & Date
Minimum magnitude displayed is 2.5.

Coastal Water Temperatures

Place Temperature

Stations

Nearby Weather Stations

Station Location Temp. Windchill Dew Point Humidity Wind Precip. Elev Updated Type
                   

Watches & Warnings

Heat Advisory
Issued: 7:25 PM EDT Jul. 24, 2016 – National Weather Service

... Heat advisory remains in effect from noon to 8 PM EDT Monday...

* heat index values... up to 109 due to temperatures in the mid
90s to around 100... and dewpoints in the lower 70s.

* Impacts... risk of heat-related illness for those without air-
conditioning or those outdoors for an extended period.

Precautionary/preparedness actions...

A heat advisory means that a period of high temperatures is
expected. The combination of high temperatures and high humidity
will create a situation in which heat illnesses are possible.

Take extra precautions if you work or spend time outside. When
possible... reschedule strenuous activities to early morning or
evening. Know the signs and symptoms of heat exhaustion and heat
stroke. Wear light weight and loose fitting clothing when
possible and drink plenty of water.

To reduce risk during outdoor work... the occupational safety and
health administration recommends scheduling frequent rest breaks
in shaded or air conditioned environments. Anyone overcome by
heat should be moved to a cool and shaded location. Heat stroke
is an emergency - call 911.